Year,Month,Day,Hour,Minute,Value (Times are PST for temperature in C)
2009,05,03,00,00,9.30
2009,05,03,00,01,9.40
2009,05,03,00,02,9.40
2009,05,03,00,03,9.40
2009,05,03,00,04,9.40
2009,05,03,00,05,9.50
2009,05,03,00,06,9.50
2009,05,03,00,07,9.50
2009,05,03,00,08,9.40
2009,05,03,00,09,9.40
2009,05,03,00,10,9.40
2009,05,03,00,11,9.40
2009,05,03,00,12,9.30
2009,05,03,00,13,9.30
2009,05,03,00,14,9.30
2009,05,03,00,15,9.20
2009,05,03,00,16,9.20
2009,05,03,00,17,9.20
2009,05,03,00,18,9.20
2009,05,03,00,19,9.10
2009,05,03,00,20,9.10
2009,05,03,00,21,9.10
2009,05,03,00,22,9.10
2009,05,03,00,23,9.10
2009,05,03,00,24,9.10
2009,05,03,00,25,9.10
2009,05,03,00,26,9.10
2009,05,03,00,27,9.10
2009,05,03,00,28,9.10
2009,05,03,00,29,9.10
2009,05,03,00,30,9.10
2009,05,03,00,31,9.00
2009,05,03,00,32,9.00
2009,05,03,00,33,9.00
2009,05,03,00,34,9.10
2009,05,03,00,35,9.10
2009,05,03,00,36,9.10
2009,05,03,00,37,9.20
2009,05,03,00,38,9.20
2009,05,03,00,39,9.30
2009,05,03,00,40,9.30
2009,05,03,00,41,9.40
2009,05,03,00,42,9.50
2009,05,03,00,43,9.50
2009,05,03,00,44,9.50
2009,05,03,00,45,9.40
2009,05,03,00,46,9.40
2009,05,03,00,47,9.50
2009,05,03,00,48,9.60
2009,05,03,00,49,9.60
2009,05,03,00,50,9.60
2009,05,03,00,51,9.60
2009,05,03,00,52,9.60
2009,05,03,00,53,9.60
2009,05,03,00,54,9.60
2009,05,03,00,55,9.60
2009,05,03,00,56,9.70
2009,05,03,00,57,9.70
2009,05,03,00,58,9.70
2009,05,03,00,59,9.70
2009,05,03,01,00,9.70
2009,05,03,01,01,9.70
2009,05,03,01,02,9.70
2009,05,03,01,03,9.80
2009,05,03,01,04,9.70
2009,05,03,01,05,9.70
2009,05,03,01,06,9.60
2009,05,03,01,07,9.60
2009,05,03,01,08,9.60
2009,05,03,01,09,9.60
2009,05,03,01,10,9.60
2009,05,03,01,11,9.60
2009,05,03,01,12,9.50
2009,05,03,01,13,9.40
2009,05,03,01,14,9.50
2009,05,03,01,15,9.50
2009,05,03,01,16,9.50
2009,05,03,01,17,9.40
2009,05,03,01,18,9.40
2009,05,03,01,19,9.30
2009,05,03,01,20,9.30
2009,05,03,01,21,9.30
2009,05,03,01,22,9.30
2009,05,03,01,23,9.30
2009,05,03,01,24,9.30
2009,05,03,01,25,9.20
2009,05,03,01,26,9.20
2009,05,03,01,27,9.10
2009,05,03,01,28,9.10
2009,05,03,01,29,9.10
2009,05,03,01,30,9.10
2009,05,03,01,31,9.10
2009,05,03,01,32,9.00
2009,05,03,01,33,9.00
2009,05,03,01,34,8.90
2009,05,03,01,35,8.80
2009,05,03,01,36,8.70
2009,05,03,01,37,8.60
2009,05,03,01,38,8.30
2009,05,03,01,39,8.10
2009,05,03,01,40,8.00
2009,05,03,01,41,7.90
2009,05,03,01,42,7.80
2009,05,03,01,43,7.80
2009,05,03,01,44,7.80
2009,05,03,01,45,7.80
2009,05,03,01,46,7.70
2009,05,03,01,47,7.80
2009,05,03,01,48,7.80
2009,05,03,01,49,7.80
2009,05,03,01,50,7.80
2009,05,03,01,51,7.80
2009,05,03,01,52,7.90
2009,05,03,01,53,7.90
2009,05,03,01,54,8.00
2009,05,03,01,55,8.00
2009,05,03,01,56,8.10
2009,05,03,01,57,8.10
2009,05,03,01,58,8.10
2009,05,03,01,59,8.10
2009,05,03,02,00,8.10
2009,05,03,02,01,8.10
2009,05,03,02,02,8.10
2009,05,03,02,03,8.10
2009,05,03,02,04,8.10
2009,05,03,02,05,8.10
2009,05,03,02,06,8.10
2009,05,03,02,07,8.00
2009,05,03,02,08,8.00
2009,05,03,02,09,8.00
2009,05,03,02,10,7.90
2009,05,03,02,11,7.90
2009,05,03,02,12,7.90
2009,05,03,02,13,7.80
2009,05,03,02,14,7.80
2009,05,03,02,15,7.80
2009,05,03,02,16,7.90
2009,05,03,02,17,7.90
2009,05,03,02,18,7.90
2009,05,03,02,19,7.80
2009,05,03,02,20,7.80
2009,05,03,02,21,7.80
2009,05,03,02,22,7.80
2009,05,03,02,23,7.90
2009,05,03,02,24,7.90
2009,05,03,02,25,8.00
2009,05,03,02,26,8.00
2009,05,03,02,27,8.10
2009,05,03,02,28,8.00
2009,05,03,02,29,8.00
2009,05,03,02,30,8.00
2009,05,03,02,31,7.90
2009,05,03,02,32,7.90
2009,05,03,02,33,7.90
2009,05,03,02,34,7.80
2009,05,03,02,35,7.80
2009,05,03,02,36,7.80
2009,05,03,02,37,7.70
2009,05,03,02,38,7.70
2009,05,03,02,39,7.70
2009,05,03,02,40,7.70
2009,05,03,02,41,7.70
2009,05,03,02,42,7.80
2009,05,03,02,43,7.90
2009,05,03,02,44,8.00
2009,05,03,02,45,8.00
2009,05,03,02,46,7.90
2009,05,03,02,47,7.90
2009,05,03,02,48,8.00
2009,05,03,02,49,8.00
2009,05,03,02,50,8.10
2009,05,03,02,51,8.10
2009,05,03,02,52,8.10
2009,05,03,02,53,8.10
2009,05,03,02,54,8.10
2009,05,03,02,55,8.00
2009,05,03,02,56,8.00
2009,05,03,02,57,7.90
2009,05,03,02,58,7.90
2009,05,03,02,59,7.90
2009,05,03,03,00,7.90
2009,05,03,03,01,7.90
2009,05,03,03,02,7.90
2009,05,03,03,03,7.90
2009,05,03,03,04,7.80
2009,05,03,03,05,7.80
2009,05,03,03,06,7.70
2009,05,03,03,07,7.60
2009,05,03,03,08,7.60
2009,05,03,03,09,7.50
2009,05,03,03,10,7.50
2009,05,03,03,11,7.50
2009,05,03,03,12,7.50
2009,05,03,03,13,7.60
2009,05,03,03,14,7.60
2009,05,03,03,15,7.70
2009,05,03,03,16,7.80
2009,05,03,03,17,7.80
2009,05,03,03,18,7.90
2009,05,03,03,19,8.00
2009,05,03,03,20,8.00
2009,05,03,03,21,8.10
2009,05,03,03,22,8.10
2009,05,03,03,23,8.10
2009,05,03,03,24,8.10
2009,05,03,03,25,8.10
2009,05,03,03,26,8.10
2009,05,03,03,27,8.10
2009,05,03,03,28,8.20
2009,05,03,03,29,8.10
2009,05,03,03,30,8.10
2009,05,03,03,31,8.00
2009,05,03,03,32,7.80
2009,05,03,03,33,7.70
2009,05,03,03,34,7.60
2009,05,03,03,35,7.50
2009,05,03,03,36,7.40
2009,05,03,03,37,7.40
2009,05,03,03,38,7.30
2009,05,03,03,39,7.20
2009,05,03,03,40,7.20
2009,05,03,03,41,7.20
2009,05,03,03,42,7.10
2009,05,03,03,43,7.10
2009,05,03,03,44,7.00
2009,05,03,03,45,6.90
2009,05,03,03,46,6.80
2009,05,03,03,47,6.80
2009,05,03,03,48,6.70
2009,05,03,03,49,6.60
2009,05,03,03,50,6.50
2009,05,03,03,51,6.50
2009,05,03,03,52,6.50
2009,05,03,03,53,6.50
2009,05,03,03,54,6.50
2009,05,03,03,55,6.50
2009,05,03,03,56,6.50
2009,05,03,03,57,6.60
2009,05,03,03,58,6.60
2009,05,03,03,59,6.60
2009,05,03,04,00,6.70
2009,05,03,04,01,6.80
2009,05,03,04,02,6.80
2009,05,03,04,03,6.90
2009,05,03,04,04,7.00
2009,05,03,04,05,7.10
2009,05,03,04,06,7.20
2009,05,03,04,07,7.30
2009,05,03,04,08,7.40
2009,05,03,04,09,7.50
2009,05,03,04,10,7.60
2009,05,03,04,11,7.60
2009,05,03,04,12,7.70
2009,05,03,04,13,7.70
2009,05,03,04,14,7.70
2009,05,03,04,15,7.70
2009,05,03,04,16,7.80
2009,05,03,04,17,7.80
2009,05,03,04,18,7.80
2009,05,03,04,19,7.80
2009,05,03,04,20,7.90
2009,05,03,04,21,7.90
2009,05,03,04,22,8.00
2009,05,03,04,23,8.10
2009,05,03,04,24,8.00
2009,05,03,04,25,8.00
2009,05,03,04,26,8.00
2009,05,03,04,27,8.00
2009,05,03,04,28,8.00
2009,05,03,04,29,7.90
2009,05,03,04,30,7.90
2009,05,03,04,31,7.90
2009,05,03,04,32,7.90
2009,05,03,04,33,7.80
2009,05,03,04,34,7.80
2009,05,03,04,35,7.80
2009,05,03,04,36,7.80
2009,05,03,04,37,7.70
2009,05,03,04,38,7.70
2009,05,03,04,39,7.70
2009,05,03,04,40,7.60
2009,05,03,04,41,7.60
2009,05,03,04,42,7.50
2009,05,03,04,43,7.50
2009,05,03,04,44,7.40
2009,05,03,04,45,7.40
2009,05,03,04,46,7.40
2009,05,03,04,47,7.40
2009,05,03,04,48,7.40
2009,05,03,04,49,7.40
2009,05,03,04,50,7.30
2009,05,03,04,51,7.30
2009,05,03,04,52,7.30
2009,05,03,04,53,7.30
2009,05,03,04,54,7.30
2009,05,03,04,55,7.30
2009,05,03,04,56,7.30
2009,05,03,04,57,7.30
2009,05,03,04,58,7.30
2009,05,03,04,59,7.30
2009,05,03,05,00,7.40
2009,05,03,05,01,7.40
2009,05,03,05,02,7.40
2009,05,03,05,03,7.40
2009,05,03,05,04,7.50
2009,05,03,05,05,7.60
2009,05,03,05,06,7.60
2009,05,03,05,07,7.70
2009,05,03,05,08,7.70
2009,05,03,05,09,7.80
2009,05,03,05,10,7.90
2009,05,03,05,11,8.10
2009,05,03,05,12,8.10
2009,05,03,05,13,8.20
2009,05,03,05,14,8.30
2009,05,03,05,15,8.50
2009,05,03,05,16,8.60
2009,05,03,05,17,8.70
2009,05,03,05,18,8.70
2009,05,03,05,19,8.70
2009,05,03,05,20,8.80
2009,05,03,05,21,8.80
2009,05,03,05,22,8.80
2009,05,03,05,23,8.80
2009,05,03,05,24,8.80
2009,05,03,05,25,8.80
2009,05,03,05,26,8.80
2009,05,03,05,27,8.70
2009,05,03,05,28,8.70
2009,05,03,05,29,8.60
2009,05,03,05,30,8.60
2009,05,03,05,31,8.50
2009,05,03,05,32,8.50
2009,05,03,05,33,8.50
2009,05,03,05,34,8.40
2009,05,03,05,35,8.40
2009,05,03,05,36,8.50
2009,05,03,05,37,8.40
2009,05,03,05,38,8.30
2009,05,03,05,39,8.20
2009,05,03,05,40,8.20
2009,05,03,05,41,8.10
2009,05,03,05,42,8.10
2009,05,03,05,43,8.00
2009,05,03,05,44,8.00
2009,05,03,05,45,8.00
2009,05,03,05,46,8.10
2009,05,03,05,47,8.10
2009,05,03,05,48,8.20
2009,05,03,05,49,8.20
2009,05,03,05,50,8.20
2009,05,03,05,51,8.20
2009,05,03,05,52,8.20
2009,05,03,05,53,8.10
2009,05,03,05,54,8.10
2009,05,03,05,55,8.10
2009,05,03,05,56,8.00
2009,05,03,05,57,8.00
2009,05,03,05,58,8.00
2009,05,03,05,59,7.90
2009,05,03,06,00,7.90
2009,05,03,06,01,7.90
2009,05,03,06,02,7.90
2009,05,03,06,03,7.90
2009,05,03,06,04,7.90
2009,05,03,06,05,7.80
2009,05,03,06,06,7.80
2009,05,03,06,07,7.80
2009,05,03,06,08,7.80
2009,05,03,06,09,7.80
2009,05,03,06,10,7.80
2009,05,03,06,11,7.80
2009,05,03,06,12,7.80
2009,05,03,06,13,7.70
2009,05,03,06,14,7.50
2009,05,03,06,15,7.40
2009,05,03,06,16,7.20
2009,05,03,06,17,7.10
2009,05,03,06,18,7.00
2009,05,03,06,19,7.00
2009,05,03,06,20,6.90
2009,05,03,06,21,6.90
2009,05,03,06,22,6.80
2009,05,03,06,23,6.80
2009,05,03,06,24,6.80
2009,05,03,06,25,6.70
2009,05,03,06,26,6.70
2009,05,03,06,27,6.70
2009,05,03,06,28,6.70
2009,05,03,06,29,6.60
2009,05,03,06,30,6.60
2009,05,03,06,31,6.70
2009,05,03,06,32,6.70
2009,05,03,06,33,6.80
2009,05,03,06,34,6.80
2009,05,03,06,35,6.90
2009,05,03,06,36,7.00
2009,05,03,06,37,7.10
2009,05,03,06,38,7.20
2009,05,03,06,39,7.20
2009,05,03,06,40,7.30
2009,05,03,06,41,7.30
2009,05,03,06,42,7.30
2009,05,03,06,43,7.30
2009,05,03,06,44,7.30
2009,05,03,06,45,7.30
2009,05,03,06,46,7.40
2009,05,03,06,47,7.40
2009,05,03,06,48,7.40
2009,05,03,06,49,7.50
2009,05,03,06,50,7.70
2009,05,03,06,51,7.90
2009,05,03,06,52,8.10
2009,05,03,06,53,8.20
2009,05,03,06,54,8.30
2009,05,03,06,55,8.30
2009,05,03,06,56,8.30
2009,05,03,06,57,8.40
2009,05,03,06,58,8.40
2009,05,03,06,59,8.40
2009,05,03,07,00,8.30
2009,05,03,07,01,8.20
2009,05,03,07,02,8.10
2009,05,03,07,03,8.10
2009,05,03,07,04,8.10
2009,05,03,07,05,8.00
2009,05,03,07,06,8.00
2009,05,03,07,07,8.00
2009,05,03,07,08,8.00
2009,05,03,07,09,7.90
2009,05,03,07,10,8.00
2009,05,03,07,11,8.00
2009,05,03,07,12,8.00
2009,05,03,07,13,8.00
2009,05,03,07,14,8.00
2009,05,03,07,15,7.90
2009,05,03,07,16,7.80
2009,05,03,07,17,7.70
2009,05,03,07,18,7.60
2009,05,03,07,19,7.50
2009,05,03,07,20,7.50
2009,05,03,07,21,7.50
2009,05,03,07,22,7.60
2009,05,03,07,23,7.60
2009,05,03,07,24,7.60
2009,05,03,07,25,7.60
2009,05,03,07,26,7.70
2009,05,03,07,27,7.70
2009,05,03,07,28,7.70
2009,05,03,07,29,7.70
2009,05,03,07,30,7.80
2009,05,03,07,31,7.80
2009,05,03,07,32,7.90
2009,05,03,07,33,8.00
2009,05,03,07,34,8.10
2009,05,03,07,35,8.20
2009,05,03,07,36,8.30
2009,05,03,07,37,8.30
2009,05,03,07,38,8.30
2009,05,03,07,39,8.30
2009,05,03,07,40,8.20
2009,05,03,07,41,8.20
2009,05,03,07,42,8.30
2009,05,03,07,43,8.30
2009,05,03,07,44,8.40
2009,05,03,07,45,8.50
2009,05,03,07,46,8.60
2009,05,03,07,47,8.70
2009,05,03,07,48,8.90
2009,05,03,07,49,9.00
2009,05,03,07,50,9.10
2009,05,03,07,51,9.20
2009,05,03,07,52,9.30
2009,05,03,07,53,9.40
2009,05,03,07,54,9.50
2009,05,03,07,55,9.40
2009,05,03,07,56,9.40
2009,05,03,07,57,9.40
2009,05,03,07,58,9.40
2009,05,03,07,59,9.50
2009,05,03,08,00,9.50
2009,05,03,08,01,9.60
2009,05,03,08,02,9.60
2009,05,03,08,03,9.70
2009,05,03,08,04,9.80
2009,05,03,08,05,9.90
2009,05,03,08,06,9.90
2009,05,03,08,07,9.90
2009,05,03,08,08,10.00
2009,05,03,08,09,10.00
2009,05,03,08,10,10.10
2009,05,03,08,11,10.10
2009,05,03,08,12,10.20
2009,05,03,08,13,10.30
2009,05,03,08,14,10.30
2009,05,03,08,15,10.30
2009,05,03,08,16,10.40
2009,05,03,08,17,10.40
2009,05,03,08,18,10.40
2009,05,03,08,19,10.50
2009,05,03,08,20,10.50
2009,05,03,08,21,10.60
2009,05,03,08,22,10.60
2009,05,03,08,23,10.70
2009,05,03,08,24,10.70
2009,05,03,08,25,10.80
2009,05,03,08,26,11.00
2009,05,03,08,27,11.10
2009,05,03,08,28,11.20
2009,05,03,08,29,11.30
2009,05,03,08,30,11.30
2009,05,03,08,31,11.20
2009,05,03,08,32,11.00
2009,05,03,08,33,10.80
2009,05,03,08,34,10.60
2009,05,03,08,35,10.50
2009,05,03,08,36,10.40
2009,05,03,08,37,10.30
2009,05,03,08,38,10.30
2009,05,03,08,39,10.30
2009,05,03,08,40,10.30
2009,05,03,08,41,10.30
2009,05,03,08,42,10.30
2009,05,03,08,43,10.30
2009,05,03,08,44,10.40
2009,05,03,08,45,10.40
2009,05,03,08,46,10.30
2009,05,03,08,47,10.20
2009,05,03,08,48,10.30
2009,05,03,08,49,10.30
2009,05,03,08,50,10.30
2009,05,03,08,51,10.30
2009,05,03,08,52,10.40
2009,05,03,08,53,10.40
2009,05,03,08,54,10.40
2009,05,03,08,55,10.40
2009,05,03,08,56,10.40
2009,05,03,08,57,10.30
2009,05,03,08,58,10.30
2009,05,03,08,59,10.40
2009,05,03,09,00,10.40
2009,05,03,09,01,10.40
2009,05,03,09,02,10.30
2009,05,03,09,03,10.30
2009,05,03,09,04,10.30
2009,05,03,09,05,10.30
2009,05,03,09,06,10.20
2009,05,03,09,07,10.20
2009,05,03,09,08,10.20
2009,05,03,09,09,10.30
2009,05,03,09,10,10.40
2009,05,03,09,11,10.40
2009,05,03,09,12,10.50
2009,05,03,09,13,10.60
2009,05,03,09,14,10.60
2009,05,03,09,15,10.70
2009,05,03,09,16,10.70
2009,05,03,09,17,10.60
2009,05,03,09,18,10.60
2009,05,03,09,19,10.60
2009,05,03,09,20,10.60
2009,05,03,09,21,10.60
2009,05,03,09,22,10.70
2009,05,03,09,23,10.70
2009,05,03,09,24,10.70
2009,05,03,09,25,10.80
2009,05,03,09,26,10.80
2009,05,03,09,27,10.80
2009,05,03,09,28,10.70
2009,05,03,09,29,10.70
2009,05,03,09,30,10.70
2009,05,03,09,31,10.70
2009,05,03,09,32,10.70
2009,05,03,09,33,10.80
2009,05,03,09,34,10.80
2009,05,03,09,35,10.90
2009,05,03,09,36,10.90
2009,05,03,09,37,10.80
2009,05,03,09,38,10.70
2009,05,03,09,39,10.70
2009,05,03,09,40,10.80
2009,05,03,09,41,10.80
2009,05,03,09,42,10.80
2009,05,03,09,43,10.80
2009,05,03,09,44,10.90
2009,05,03,09,45,11.20
2009,05,03,09,46,11.30
2009,05,03,09,47,11.40
2009,05,03,09,48,11.50
2009,05,03,09,49,11.60
2009,05,03,09,50,11.50
2009,05,03,09,51,11.50
2009,05,03,09,52,11.70
2009,05,03,09,53,11.90
2009,05,03,09,54,12.10
2009,05,03,09,55,12.20
2009,05,03,09,56,12.20
2009,05,03,09,57,12.10
2009,05,03,09,58,12.10
2009,05,03,09,59,12.20
2009,05,03,10,00,12.20
2009,05,03,10,01,12.10
2009,05,03,10,02,12.20
2009,05,03,10,03,12.30
2009,05,03,10,04,12.30
2009,05,03,10,05,12.40
2009,05,03,10,06,12.40
2009,05,03,10,07,12.40
2009,05,03,10,08,12.30
2009,05,03,10,09,12.20
2009,05,03,10,10,12.20
2009,05,03,10,11,12.20
2009,05,03,10,12,12.20
2009,05,03,10,13,12.20
2009,05,03,10,14,12.10
2009,05,03,10,15,12.10
2009,05,03,10,16,12.10
2009,05,03,10,17,12.20
2009,05,03,10,18,12.30
2009,05,03,10,19,12.30
2009,05,03,10,20,12.30
2009,05,03,10,21,12.30
2009,05,03,10,22,12.30
2009,05,03,10,23,12.30
2009,05,03,10,24,12.30
2009,05,03,10,25,12.20
2009,05,03,10,26,12.10
2009,05,03,10,27,12.00
2009,05,03,10,28,11.80
2009,05,03,10,29,11.60
2009,05,03,10,30,11.40
2009,05,03,10,31,11.40
2009,05,03,10,32,11.30
2009,05,03,10,33,11.40
2009,05,03,10,34,11.40
2009,05,03,10,35,11.40
2009,05,03,10,36,11.40
2009,05,03,10,37,11.40
2009,05,03,10,38,11.50
2009,05,03,10,39,11.40
2009,05,03,10,40,11.40
2009,05,03,10,41,11.40
2009,05,03,10,42,11.40
2009,05,03,10,43,11.40
2009,05,03,10,44,11.40
2009,05,03,10,45,11.40
2009,05,03,10,46,11.30
2009,05,03,10,47,11.40
2009,05,03,10,48,11.40
2009,05,03,10,49,11.40
2009,05,03,10,50,11.30
2009,05,03,10,51,11.30
2009,05,03,10,52,11.30
2009,05,03,10,53,11.30
2009,05,03,10,54,11.30
2009,05,03,10,55,11.40
2009,05,03,10,56,11.40
2009,05,03,10,57,11.30
2009,05,03,10,58,11.30
2009,05,03,10,59,11.20
2009,05,03,11,00,11.10
2009,05,03,11,01,11.10
2009,05,03,11,02,11.10
2009,05,03,11,03,11.10
2009,05,03,11,04,11.10
2009,05,03,11,05,11.10
2009,05,03,11,06,11.10
2009,05,03,11,07,11.10
2009,05,03,11,08,11.10
2009,05,03,11,09,11.10
2009,05,03,11,10,11.10
2009,05,03,11,11,11.00
2009,05,03,11,12,11.00
2009,05,03,11,13,11.00
2009,05,03,11,14,11.00
2009,05,03,11,15,11.00
2009,05,03,11,16,11.00
2009,05,03,11,17,11.20
2009,05,03,11,18,11.30
2009,05,03,11,19,11.50
2009,05,03,11,20,11.70
2009,05,03,11,21,11.70
2009,05,03,11,22,11.70
2009,05,03,11,23,11.70
2009,05,03,11,24,11.80
2009,05,03,11,25,11.80
2009,05,03,11,26,11.90
2009,05,03,11,27,11.90
2009,05,03,11,28,12.00
2009,05,03,11,29,12.10
2009,05,03,11,30,12.10
2009,05,03,11,31,12.00
2009,05,03,11,32,12.00
2009,05,03,11,33,12.10
2009,05,03,11,34,12.30
2009,05,03,11,35,12.30
2009,05,03,11,36,12.40
2009,05,03,11,37,12.40
2009,05,03,11,38,12.40
2009,05,03,11,39,12.40
2009,05,03,11,40,12.60
2009,05,03,11,41,12.70
2009,05,03,11,42,12.70
2009,05,03,11,43,12.60
2009,05,03,11,44,12.50
2009,05,03,11,45,12.60
2009,05,03,11,46,12.70
2009,05,03,11,47,12.60
2009,05,03,11,48,12.50
2009,05,03,11,49,12.40
2009,05,03,11,50,12.40
2009,05,03,11,51,12.50
2009,05,03,11,52,12.50
2009,05,03,11,53,12.60
2009,05,03,11,54,12.60
2009,05,03,11,55,12.60
2009,05,03,11,56,12.60
2009,05,03,11,57,12.60
2009,05,03,11,58,12.70
2009,05,03,11,59,12.70
2009,05,03,12,00,12.60
2009,05,03,12,01,12.60
2009,05,03,12,02,12.40
2009,05,03,12,03,12.30
2009,05,03,12,04,12.30
2009,05,03,12,05,12.30
2009,05,03,12,06,12.20
2009,05,03,12,07,12.10
2009,05,03,12,08,12.10
2009,05,03,12,09,12.10
2009,05,03,12,10,12.10
2009,05,03,12,11,12.10
2009,05,03,12,12,12.20
2009,05,03,12,13,12.20
2009,05,03,12,14,12.30
2009,05,03,12,15,12.40
2009,05,03,12,16,12.60
2009,05,03,12,17,12.70
2009,05,03,12,18,12.90
2009,05,03,12,19,12.90
2009,05,03,12,20,12.90
2009,05,03,12,21,12.80
2009,05,03,12,22,12.80
2009,05,03,12,23,12.80
2009,05,03,12,24,12.70
2009,05,03,12,25,12.60
2009,05,03,12,26,12.50
2009,05,03,12,27,12.40
2009,05,03,12,28,12.30
2009,05,03,12,29,12.30
2009,05,03,12,30,12.20
2009,05,03,12,31,12.20
2009,05,03,12,32,12.10
2009,05,03,12,33,12.10
2009,05,03,12,34,12.10
2009,05,03,12,35,12.10
2009,05,03,12,36,12.00
2009,05,03,12,37,11.90
2009,05,03,12,38,11.90
2009,05,03,12,39,11.90
2009,05,03,12,40,11.90
2009,05,03,12,41,11.90
2009,05,03,12,42,11.90
2009,05,03,12,43,11.90
2009,05,03,12,44,11.90
2009,05,03,12,45,11.90
2009,05,03,12,46,11.90
2009,05,03,12,47,11.90
2009,05,03,12,48,11.90
2009,05,03,12,49,12.00
2009,05,03,12,50,12.00
2009,05,03,12,51,11.90
2009,05,03,12,52,11.80
2009,05,03,12,53,11.80
2009,05,03,12,54,11.80
2009,05,03,12,55,11.90
2009,05,03,12,56,11.90
2009,05,03,12,57,11.80
2009,05,03,12,58,11.90
2009,05,03,12,59,11.90
2009,05,03,13,00,12.00
2009,05,03,13,01,12.10
2009,05,03,13,02,12.20
2009,05,03,13,03,12.20
2009,05,03,13,04,12.30
2009,05,03,13,05,12.40
2009,05,03,13,06,12.40
2009,05,03,13,07,12.50
2009,05,03,13,08,12.50
2009,05,03,13,09,12.60
2009,05,03,13,10,12.70
2009,05,03,13,11,12.70
2009,05,03,13,12,12.70
2009,05,03,13,13,12.60
2009,05,03,13,14,12.60
2009,05,03,13,15,12.60
2009,05,03,13,16,12.70
2009,05,03,13,17,12.70
2009,05,03,13,18,12.60
2009,05,03,13,19,12.60
2009,05,03,13,20,12.60
2009,05,03,13,21,12.50
2009,05,03,13,22,12.50
2009,05,03,13,23,12.40
2009,05,03,13,24,12.40
2009,05,03,13,25,12.50
2009,05,03,13,26,12.60
2009,05,03,13,27,12.70
2009,05,03,13,28,12.80
2009,05,03,13,29,12.90
2009,05,03,13,30,12.90
2009,05,03,13,31,12.90
2009,05,03,13,32,12.90
2009,05,03,13,33,12.90
2009,05,03,13,34,12.90
2009,05,03,13,35,12.90
2009,05,03,13,36,12.80
2009,05,03,13,37,12.80
2009,05,03,13,38,12.80
2009,05,03,13,39,12.80
2009,05,03,13,40,12.80
2009,05,03,13,41,12.80
2009,05,03,13,42,12.80
2009,05,03,13,43,12.80
2009,05,03,13,44,12.70
2009,05,03,13,45,12.70
2009,05,03,13,46,12.70
2009,05,03,13,47,12.60
2009,05,03,13,48,12.60
2009,05,03,13,49,12.60
2009,05,03,13,50,12.60
2009,05,03,13,51,12.50
2009,05,03,13,52,12.40
2009,05,03,13,53,12.30
2009,05,03,13,54,12.30
2009,05,03,13,55,12.30
2009,05,03,13,56,12.30
2009,05,03,13,57,12.30
2009,05,03,13,58,12.40
2009,05,03,13,59,12.50
2009,05,03,14,00,12.60
2009,05,03,14,01,12.70
2009,05,03,14,02,12.80
2009,05,03,14,03,12.90
2009,05,03,14,04,12.90
2009,05,03,14,05,13.00
2009,05,03,14,06,12.90
2009,05,03,14,07,12.80
2009,05,03,14,08,12.80
2009,05,03,14,09,12.80
2009,05,03,14,10,12.80
2009,05,03,14,11,12.80
2009,05,03,14,12,12.70
2009,05,03,14,13,12.70
2009,05,03,14,14,12.70
2009,05,03,14,15,12.60
2009,05,03,14,16,12.60
2009,05,03,14,17,12.50
2009,05,03,14,18,12.40
2009,05,03,14,19,12.40
2009,05,03,14,20,12.50
2009,05,03,14,21,12.60
2009,05,03,14,22,12.70
2009,05,03,14,23,12.70
2009,05,03,14,24,12.70
2009,05,03,14,25,12.60
2009,05,03,14,26,12.60
2009,05,03,14,27,12.60
2009,05,03,14,28,12.60
2009,05,03,14,29,12.60
2009,05,03,14,30,12.50
2009,05,03,14,31,12.40
2009,05,03,14,32,12.40
2009,05,03,14,33,12.40
2009,05,03,14,34,12.40
2009,05,03,14,35,12.30
2009,05,03,14,36,12.20
2009,05,03,14,37,12.20
2009,05,03,14,38,12.20
2009,05,03,14,39,12.20
2009,05,03,14,40,12.20
2009,05,03,14,41,12.30
2009,05,03,14,42,12.20
2009,05,03,14,43,12.20
2009,05,03,14,44,12.10
2009,05,03,14,45,11.90
2009,05,03,14,46,11.80
2009,05,03,14,47,11.80
2009,05,03,14,48,11.70
2009,05,03,14,49,11.70
2009,05,03,14,50,11.70
2009,05,03,14,51,11.70
2009,05,03,14,52,11.60
2009,05,03,14,53,11.50
2009,05,03,14,54,11.40
2009,05,03,14,55,11.40
2009,05,03,14,56,11.30
2009,05,03,14,57,11.30
2009,05,03,14,58,11.30
2009,05,03,14,59,11.20
2009,05,03,15,00,11.00
2009,05,03,15,01,10.80
2009,05,03,15,02,10.60
2009,05,03,15,03,10.40
2009,05,03,15,04,10.00
2009,05,03,15,05,9.70
2009,05,03,15,06,9.50
2009,05,03,15,07,9.20
2009,05,03,15,08,9.00
2009,05,03,15,09,8.90
2009,05,03,15,10,8.80
2009,05,03,15,11,8.70
2009,05,03,15,12,8.60
2009,05,03,15,13,8.50
2009,05,03,15,14,8.40
2009,05,03,15,15,8.40
2009,05,03,15,16,8.30
2009,05,03,15,17,8.30
2009,05,03,15,18,8.20
2009,05,03,15,19,8.20
2009,05,03,15,20,8.20
2009,05,03,15,21,8.00
2009,05,03,15,22,7.90
2009,05,03,15,23,7.80
2009,05,03,15,24,7.70
2009,05,03,15,25,7.60
2009,05,03,15,26,7.60
2009,05,03,15,27,7.60
2009,05,03,15,28,7.80
2009,05,03,15,29,8.00
2009,05,03,15,30,8.20
2009,05,03,15,31,8.30
2009,05,03,15,32,8.50
2009,05,03,15,33,8.60
2009,05,03,15,34,8.70
2009,05,03,15,35,8.70
2009,05,03,15,36,8.80
2009,05,03,15,37,8.90
2009,05,03,15,38,9.10
2009,05,03,15,39,9.20
2009,05,03,15,40,9.30
2009,05,03,15,41,9.40
2009,05,03,15,42,9.50
2009,05,03,15,43,9.60
2009,05,03,15,44,9.70
2009,05,03,15,45,9.70
2009,05,03,15,46,9.80
2009,05,03,15,47,9.80
2009,05,03,15,48,9.90
2009,05,03,15,49,10.00
2009,05,03,15,50,9.90
2009,05,03,15,51,9.90
2009,05,03,15,52,9.80
2009,05,03,15,53,9.80
2009,05,03,15,54,9.80
2009,05,03,15,55,9.80
2009,05,03,15,56,9.80
2009,05,03,15,57,9.80
2009,05,03,15,58,9.80
2009,05,03,15,59,9.80
2009,05,03,16,00,9.90
2009,05,03,16,01,9.90
2009,05,03,16,02,9.90
2009,05,03,16,03,10.00
2009,05,03,16,04,10.00
2009,05,03,16,05,9.90
2009,05,03,16,06,9.90
2009,05,03,16,07,9.90
2009,05,03,16,08,9.90
2009,05,03,16,09,10.00
2009,05,03,16,10,10.00
2009,05,03,16,11,10.10
2009,05,03,16,12,10.10
2009,05,03,16,13,10.20
2009,05,03,16,14,10.20
2009,05,03,16,15,10.30
2009,05,03,16,16,10.40
2009,05,03,16,17,10.40
2009,05,03,16,18,10.40
2009,05,03,16,19,10.40
2009,05,03,16,20,10.50
2009,05,03,16,21,10.60
2009,05,03,16,22,10.60
2009,05,03,16,23,10.60
2009,05,03,16,24,10.50
2009,05,03,16,25,10.50
2009,05,03,16,26,10.50
2009,05,03,16,27,10.50
2009,05,03,16,28,10.50
2009,05,03,16,29,10.50
2009,05,03,16,30,10.40
2009,05,03,16,31,10.40
2009,05,03,16,32,10.40
2009,05,03,16,33,10.40
2009,05,03,16,34,10.40
2009,05,03,16,35,10.40
2009,05,03,16,36,10.40
2009,05,03,16,37,10.30
2009,05,03,16,38,10.30
2009,05,03,16,39,10.30
2009,05,03,16,40,10.30
2009,05,03,16,41,10.30
2009,05,03,16,42,10.30
2009,05,03,16,43,10.30
2009,05,03,16,44,10.30
2009,05,03,16,45,10.30
2009,05,03,16,46,10.30
2009,05,03,16,47,10.40
2009,05,03,16,48,10.40
2009,05,03,16,49,10.40
2009,05,03,16,50,10.40
2009,05,03,16,51,10.40
2009,05,03,16,52,10.40
2009,05,03,16,53,10.40
2009,05,03,16,54,10.40
2009,05,03,16,55,10.50
2009,05,03,16,56,10.50
2009,05,03,16,57,10.50
2009,05,03,16,58,10.50
2009,05,03,16,59,10.40
2009,05,03,17,00,10.30
2009,05,03,17,01,10.30
2009,05,03,17,02,10.30
2009,05,03,17,03,10.30
2009,05,03,17,04,10.30
2009,05,03,17,05,10.20
2009,05,03,17,06,10.20
2009,05,03,17,07,10.20
2009,05,03,17,08,10.20
2009,05,03,17,09,10.30
2009,05,03,17,10,10.30
2009,05,03,17,11,10.30
2009,05,03,17,12,10.40
2009,05,03,17,13,10.40
2009,05,03,17,14,10.40
2009,05,03,17,15,10.50
2009,05,03,17,16,10.50
2009,05,03,17,17,10.50
2009,05,03,17,18,10.40
2009,05,03,17,19,10.40
2009,05,03,17,20,10.40
2009,05,03,17,21,10.40
2009,05,03,17,22,10.40
2009,05,03,17,23,10.40
2009,05,03,17,24,10.40
2009,05,03,17,25,10.40
2009,05,03,17,26,10.30
2009,05,03,17,27,10.30
2009,05,03,17,28,10.40
2009,05,03,17,29,10.40
2009,05,03,17,30,10.40
2009,05,03,17,31,10.40
2009,05,03,17,32,10.40
2009,05,03,17,33,10.40
2009,05,03,17,34,10.50
2009,05,03,17,35,10.50
2009,05,03,17,36,10.50
2009,05,03,17,37,10.50
2009,05,03,17,38,10.60
2009,05,03,17,39,10.60
2009,05,03,17,40,10.70
2009,05,03,17,41,10.70
2009,05,03,17,42,10.70
2009,05,03,17,43,10.80